Starlink 31646

operational
NORAD ID: 59265 Int'l Des: 2024-050 Owner: SPXS Country: US Constellation: starlink
LEOCIRCULAR

关于 Starlink 31646

正在加载描述...

实时位置

正在加载3D地球...

即将过境

高度历史

Altitude vs Time

uPlot chart will show altitude changes over time

两行轨道根数

1 59265U 24050M 25308.66230914 -.00001122 00000-0 -25784-4 0 9995
2 59265 53.1610 41.9223 0001321 75.2114 284.9033 15.30179495 91400
Epoch: Nov 4, 2025 • Age: 14 hours

当前状态

高度 478.9 km
速度 7.63 km/s
星下点 -13.37°S, 104.68°W
发射日期 Mar 19, 2024
运行时间 1.6 years
类型 internet

技术详情

分类 Payload
质量 730.00 kg
干质量 700.00 kg
总质量 730.00 kg
长度 0.30 m
直径 4.10 m
跨度 29.00 m
形状 Box + pan
制造商 SPXS
平台类型 Starlink V2M
阶段状态 In Orbit
所有者/国家 SPXS/US

大型星座

Loading constellations...